This demonstration page uses our WeatherBlox Daily Observations layout. Learn more.

Hourly Observations for February 22, 2018

Temp ( °F °C ) Dew Point ( °F °C ) Humidity (%) Winds ( mph kmh ) Pressure ( in mb ) Visibility ( mi km ) Precip ( " mm )
12:15 am 00:15 Cloudy with Light Snow 23 -5.2 12 -11.3 63 63 E 8 13 30.53 1034 7 11.26538 0 0
12:35 am 00:35 Cloudy 23 -5.2 11 -11.5 62 62 E 6 9 30.53 1034 10 16.0934 0 0
12:55 am 00:55 Cloudy 23 -5.2 11 -11.6 61 61 ENE 9 15 30.5 1033 10 16.0934 0 0
1:15 am 01:15 Cloudy 22 -5.3 11 -11.6 62 62 ENE 8 13 30.5 1033 10 16.0934 0 0
1:35 am 01:35 Cloudy 22 -5.5 12 -11.3 64 64 E 9 15 30.5 1033 10 16.0934 0 0
1:55 am 01:55 Cloudy 22 -5.5 13 -10.7 67 67 ENE 12 19 30.5 1033 10 16.0934 0 0
2:15 am 02:15 Cloudy 22 -5.5 13 -10.6 68 68 E 10 17 30.48 1032 10 16.0934 0 0
2:35 am 02:35 Cloudy 22 -5.6 14 -10.2 70 70 E 9 15 30.5 1033 10 16.0934 0 0
2:55 am 02:55 Cloudy 22 -5.7 13 -10.4 70 70 E 12 19 30.48 1032 10 16.0934 0 0
3:15 am 03:15 Cloudy 22 -5.8 14 -10.2 71 71 E 10 17 30.5 1033 10 16.0934 0 0
3:35 am 03:35 Cloudy 21 -6 14 -10 74 74 E 10 17 30.5 1033 10 16.0934 0 0
3:55 am 03:55 Cloudy 21 -6 14 -9.8 75 75 E 9 15 30.48 1032 10 16.0934 0 0
4:15 am 04:15 Cloudy 21 -6.1 15 -9.5 77 77 E 13 20 30.48 1032 10 16.0934 0 0
4:35 am 04:35 Cloudy 21 -6.2 15 -9.2 80 80 E 12 19 30.45 1031 10 16.0934 0 0
4:55 am 04:55 Cloudy 21 -6.3 16 -8.9 82 82 E 10 17 30.45 1031 10 16.0934 0 0
5:15 am 05:15 Cloudy 21 -6.3 16 -8.7 83 83 ESE 12 19 30.45 1031 10 16.0934 0 0
5:35 am 05:35 Cloudy 21 -6.3 17 -8.6 84 84 E 13 20 30.45 1031 10 16.0934 0 0
5:55 am 05:55 Cloudy 21 -6.3 17 -8.5 85 85 ESE 13 20 30.45 1031 10 16.0934 0 0
6:15 am 06:15 Cloudy 20 -6.5 17 -8.3 87 87 E 13 20 30.42 1030 10 16.0934 0 0
6:35 am 06:35 Cloudy 20 -6.6 17 -8.1 89 89 E 14 22 30.42 1030 10 16.0934 0 0
6:55 am 06:55 Cloudy 20 -6.5 18 -7.9 90 90 ESE 14 22 30.42 1030 10 16.0934 0 0
7:10 am 07:10 Cloudy 20 -6.5 18 -7.8 91 91 ESE 13 20 30.42 1030 10 16.0934 0 0
7:35 am 07:35 Cloudy 20 -6.5 18 -7.7 91 91 SE 10 17 30.45 1031 10 16.0934 0 0
7:55 am 07:55 Cloudy 20 -6.4 18 -7.6 91 91 SE 9 15 30.45 1031 10 16.0934 0 0
8:15 am 08:15 Cloudy 20 -6.5 18 -7.6 92 92 SE 9 15 30.45 1031 10 16.0934 0 0
8:35 am 08:35 Cloudy 21 -6.3 19 -7.4 92 92 SE 8 13 30.45 1031 10 16.0934 0 0
8:55 am 08:55 Cloudy 21 -6.2 19 -7.3 92 92 SE 8 13 30.45 1031 10 16.0934 0 0
9:15 am 09:15 Cloudy 21 -6.1 19 -7.1 93 93 SE 9 15 30.45 1031 10 16.0934 0 0
9:35 am 09:35 Cloudy 21 -6 19 -7 93 93 SSE 8 13 30.45 1031 10 16.0934 0 0
9:55 am 09:55 Cloudy with Mist and Fog 22 -5.8 20 -6.7 93 93 SSE 7 11 30.42 1030 4 6.43736 0 0
10:15 am 10:15 Cloudy 22 -5.6 21 -6.3 95 95 SE 8 13 30.42 1030 7 11.26538 0 0
10:35 am 10:35 Cloudy 22 -5.4 21 -6.3 93 93 SE 6 9 30.42 1030 10 16.0934 0 0
10:55 am 10:55 Cloudy 22 -5.4 20 -6.5 92 92 Calm 30.39 1029 7 11.26538 0 0
11:15 am 11:15 Cloudy with Mist and Fog 22 -5.4 21 -6.2 94 94 SSE 5 7 30.39 1029 5 8.0467 0 0
11:35 am 11:35 Cloudy 23 -4.9 22 -5.8 94 94 ESE 3 6 30.39 1029 10 16.0934 0 0
11:55 am 11:55 Cloudy 23 -5 21 -6.2 91 91 Calm 30.36 1028 10 16.0934 0 0
12:15 pm 12:15 Cloudy 24 -4.5 21 -6 89 89 ENE 3 6 30.3 1026 10 16.0934 0 0
12:35 pm 12:35 Cloudy 24 -4.4 21 -6.2 87 87 E 6 9 30.3 1026 10 16.0934 0 0
12:55 pm 12:55 Cloudy 25 -4 21 -6 86 86 SE 9 15 30.3 1026 10 16.0934 0 0
1:15 pm 13:15 Cloudy with Light Snow 25 -4.1 22 -5.6 89 89 SE 10 17 30.3 1026 4 6.43736 0 0
1:35 pm 13:35 Cloudy 25 -4 22 -5.5 89 89 SE 7 11 30.27 1025 10 16.0934 0 0
1:55 pm 13:55 Cloudy 25 -4 22 -5.5 89 89 SE 10 17 30.27 1025 10 16.0934 0 0
2:15 pm 14:15 Cloudy 25 -3.9 22 -5.5 89 89 SE 8 13 30.27 1025 10 16.0934 0 0
2:35 pm 14:35 Cloudy 25 -3.7 22 -5.5 87 87 SE 8 13 30.27 1025 10 16.0934 0 0
2:55 pm 14:55 Cloudy 25 -3.7 22 -5.5 87 87 SSE 7 11 30.27 1025 10 16.0934 0 0
3:15 pm 15:15 Cloudy 25 -3.9 22 -5.3 90 90 S 9 15 30.27 1025 10 16.0934 0 0
3:35 pm 15:35 Cloudy 25 -4 23 -5.1 92 92 SSW 5 7 30.27 1025 7 11.26538 0 0
3:55 pm 15:55 Cloudy 25 -4.1 23 -5 94 94 Calm 30.27 1025 10 16.0934 0 0
4:15 pm 16:15 Cloudy 25 -4.1 23 -5 94 94 Calm 30.27 1025 7 11.26538 0 0
4:35 pm 16:35 Cloudy with Mist and Fog 25 -4.1 24 -4.5 97 97 S 3 6 30.27 1025 2.5 4.02335 0 0
4:55 pm 16:55 Cloudy with Mist and Fog 25 -4.1 24 -4.3 99 99 S 5 7 30.27 1025 3 4.82802 0 0
5:15 pm 17:15 Cloudy with Mist and Fog 25 -4 25 -4.1 99 99 SW 5 7 30.27 1025 2.5 4.02335 0 0
5:35 pm 17:35 Cloudy with Mist and Fog 25 -3.9 25 -3.9 100 100 SW 5 7 30.27 1025 1.5 2.41401 0 0
5:55 pm 17:55 Cloudy with Mist and Fog 25 -4 25 -4 100 100 SW 5 7 30.27 1025 2 3.21868 0 0
6:15 pm 18:15 Cloudy with Mist and Fog 25 -4 25 -4 100 100 WSW 5 7 30.27 1025 3 4.82802 0 0
6:35 pm 18:35 Cloudy with Mist and Fog 25 -3.9 25 -3.9 100 100 WSW 5 7 30.27 1025 3 4.82802 0 0
6:55 pm 18:55 Cloudy with Mist and Fog 25 -4 25 -4 100 100 Calm 30.27 1025 4 6.43736 0 0
7:15 pm 19:15 Cloudy with Mist and Fog 25 -4 25 -4 100 100 W 6 9 30.27 1025 4 6.43736 0 0
7:35 pm 19:35 Cloudy 25 -4.1 25 -4.1 100 100 WSW 3 6 30.27 1025 7 11.26538 0 0
7:55 pm 19:55 Cloudy 25 -4 25 -4.1 99 99 WSW 3 6 30.27 1025 7 11.26538 0 0
8:15 pm 20:15 Cloudy 25 -4.1 24 -4.3 99 99 Calm 30.27 1025 10 16.0934 0 0
8:35 pm 20:35 Cloudy 25 -4.1 24 -4.3 99 99 Calm 30.27 1025 10 16.0934 0 0
8:55 pm 20:55 Cloudy 25 -4.1 24 -4.3 99 99 W 5 7 30.27 1025 10 16.0934 0 0
9:15 pm 21:15 Cloudy 25 -4.1 24 -4.3 99 99 W 3 6 30.27 1025 10 16.0934 0 0
9:35 pm 21:35 Cloudy 25 -4.1 24 -4.3 99 99 Calm 30.27 1025 10 16.0934 0 0
9:55 pm 21:55 Cloudy 24 -4.4 24 -4.6 99 99 W 3 6 30.27 1025 10 16.0934 0 0
10:15 pm 22:15 Cloudy 25 -4.1 24 -4.3 99 99 W 5 7 30.27 1025 10 16.0934 0 0
10:35 pm 22:35 Cloudy 25 -4 24 -4.4 97 97 W 6 9 30.27 1025 10 16.0934 0 0
10:55 pm 22:55 Cloudy 25 -4 24 -4.5 96 96 WNW 7 11 30.27 1025 10 16.0934 0 0
11:15 pm 23:15 Cloudy 25 -4 24 -4.7 95 95 WNW 6 9 30.27 1025 10 16.0934 0 0
11:35 pm 23:35 Cloudy 24 -4.2 23 -5.1 94 94 WNW 3 6 30.27 1025 10 16.0934 0 0
11:55 pm 23:55 Cloudy 25 -4.1 23 -5 94 94 W 5 7 30.27 1025 10 16.0934 0 0

Powered by AerisWeather